Olathe New Century, KS

6:24 PM CDT on April 28, 2017 (GMT -0500)
New Century Aircenter

Weather History for KIXD - January, 2014

Change the Weather History Date:

Thursday, January 9, 2014

  Actual Average Record
Temperature  
Mean Temperature 24 °F -  
Max Temperature 30 °F 36 °F 59 °F (2002)
Min Temperature 17 °F 19 °F 0 °F (1999)
Degree Days  
Heating Degree Days 42    
Moisture  
Dew Point 19 °F    
Average Humidity 86    
Maximum Humidity 96    
Minimum Humidity 71    
Precipitation  
Precipitation 0.00 in - - ()
Sea Level Pressure  
Sea Level Pressure 30.20 in    
Wind  
Wind Speed 6 mph (ESE)    
Max Wind Speed 9 mph    
Max Gust Speed -    
Visibility 3 miles    
Events Fog , Snow    
Averages and records for this station are not official NWS values.
T = Trace of Precipitation, MM = Missing Value Source: NWS Daily Summary

Daily Weather History Graph

Daily Weather History Graph

Search for Another Location

Airport or City:

Trip Planner

Search our weather history database for the weather conditions in past years. The results will help you decide how hot, cold, wet, or windy it might be!

Date:

Astronomy

Jan. 09, 2014 Rise Set
Actual Time 7:37 AM CST 5:15 PM CST
Civil Twilight 7:08 AM CST 5:45 PM CST
Nautical Twilight 6:35 AM CST 6:18 PM CST
Astronomical Twilight 6:03 AM CST 6:50 PM CST
Moon 12:42 PM CST (1/9) 1:48 AM CST (1/9)
Length of Visible Light 10h 36m
Length of Day
9h 37m
Waxing Gibbous, 66% of the Moon is Illuminated
Jan 9
Waxing Gibbous
Jan 15
Full
Jan 23
Last Quarter
Jan 30
New
Feb 6
First Quarter

Hourly Weather History & Observations

Time (CST) Temp. Windchill Dew Point Humidity Pressure Visibility Wind Dir Wind Speed Gust Speed Precip Events Conditions
12:53 AM 19.0 °F 9.0 °F 10.9 °F 71% 30.35 in 10.0 mi ENE 8.1 mph - N/A   Overcast
1:53 AM 18.0 °F 8.7 °F 10.9 °F 74% 30.34 in 10.0 mi ENE 6.9 mph - N/A   Overcast
2:41 AM 18.0 °F 7.7 °F 10.9 °F 74% 30.30 in 10.0 mi NE 8.1 mph - N/A   Overcast
2:53 AM 18.0 °F 8.7 °F 10.9 °F 74% 30.34 in 10.0 mi NE 6.9 mph - N/A   Overcast
3:53 AM 17.1 °F 7.6 °F 14.0 °F 88% 30.32 in 5.0 mi NE 6.9 mph - N/A   Overcast
4:53 AM 17.1 °F 7.6 °F 14.0 °F 88% 30.32 in 5.0 mi ENE 6.9 mph - N/A   Overcast
5:36 AM 18.0 °F 9.8 °F 14.0 °F 84% 30.26 in 2.0 mi East 5.8 mph - 0.00 in Snow Light Snow
5:48 AM 17.6 °F 9.3 °F 14.0 °F 86% 30.25 in 1.8 mi ENE 5.8 mph - 0.00 in Snow Light Snow
5:53 AM 18.0 °F 9.8 °F 14.0 °F 84% 30.30 in 1.8 mi East 5.8 mph - 0.00 in Snow Light Snow
6:19 AM 18.0 °F 7.7 °F 14.0 °F 84% 30.24 in 2.0 mi East 8.1 mph - 0.00 in Snow Light Snow
6:50 AM 17.6 °F 9.3 °F 14.0 °F 86% 30.24 in 2.5 mi ENE 5.8 mph - 0.00 in Snow Light Snow
6:53 AM 18.0 °F 11.1 °F 14.0 °F 84% 30.28 in 2.5 mi ENE 4.6 mph - 0.00 in Snow Light Snow
7:41 AM 18.0 °F 11.1 °F 14.0 °F 84% 30.24 in 2.0 mi ENE 4.6 mph - 0.00 in   Overcast
7:53 AM 18.0 °F 9.8 °F 14.0 °F 84% 30.29 in 2.0 mi East 5.8 mph - 0.00 in   Overcast
8:00 AM 18.0 °F 11.1 °F 14.0 °F 84% 30.24 in 3.0 mi East 4.6 mph - N/A   Overcast
8:53 AM 18.0 °F 12.7 °F 15.1 °F 88% 30.30 in 3.0 mi ESE 3.5 mph - N/A   Overcast
9:04 AM 19.0 °F 13.9 °F 15.1 °F 85% 30.25 in 2.0 mi East 3.5 mph - N/A   Overcast
9:11 AM 19.0 °F 12.3 °F 15.1 °F 85% 30.25 in 1.5 mi East 4.6 mph - 0.00 in Snow Light Snow
9:24 AM 19.0 °F 12.3 °F 15.1 °F 85% 30.25 in 1.5 mi East 4.6 mph - 0.00 in Snow Light Snow
9:45 AM 19.0 °F 12.3 °F 16.0 °F 88% 30.25 in 2.0 mi ENE 4.6 mph - 0.00 in   Overcast
9:53 AM 19.0 °F 13.9 °F 16.0 °F 88% 30.30 in 2.5 mi East 3.5 mph - 0.00 in   Overcast
10:00 AM 19.0 °F 12.3 °F 15.1 °F 85% 30.25 in 3.0 mi East 4.6 mph - N/A   Overcast
10:51 AM 19.4 °F 11.5 °F 15.8 °F 86% 30.24 in 2.5 mi ESE 5.8 mph - 0.00 in Snow Light Snow
10:53 AM 19.9 °F 13.4 °F 16.0 °F 85% 30.29 in 2.0 mi ESE 4.6 mph - 0.00 in Snow Light Snow
11:00 AM 21.0 °F 14.6 °F 17.1 °F 85% 30.23 in 1.2 mi ESE 4.6 mph - 0.00 in Snow Light Snow
11:09 AM 21.0 °F 14.6 °F 17.1 °F 85% 30.23 in 1.2 mi ESE 4.6 mph - 0.00 in Snow Light Snow
11:53 AM 21.9 °F 14.5 °F 18.0 °F 85% 30.24 in 2.0 mi SE 5.8 mph - 0.00 in Snow Light Snow
12:01 PM 21.9 °F 14.5 °F 18.0 °F 85% 30.19 in 3.0 mi SE 5.8 mph - 0.00 in   Overcast
12:10 PM 23.0 °F 17.0 °F 19.0 °F 85% 30.18 in 4.0 mi SSE 4.6 mph - 0.00 in   Overcast
12:53 PM 24.1 °F 18.2 °F 19.9 °F 84% 30.19 in 5.0 mi SSE 4.6 mph - 0.00 in   Overcast
1:53 PM 26.1 °F 21.9 °F 21.9 °F 84% 30.17 in 5.0 mi South 3.5 mph - 0.00 in   Overcast
2:08 PM 26.1 °F 21.9 °F 21.9 °F 84% 30.12 in 5.0 mi South 3.5 mph - N/A   Overcast
2:29 PM 26.1 °F 21.9 °F 21.9 °F 84% 30.12 in 5.0 mi South 3.5 mph - N/A   Overcast
2:53 PM 27.0 °F 20.5 °F 21.9 °F 81% 30.16 in 5.0 mi South 5.8 mph - N/A   Haze
3:53 PM 28.0 °F 22.8 °F 24.1 °F 85% 30.14 in 5.0 mi SSE 4.6 mph - N/A   Overcast
5:53 PM 28.9 °F 21.9 °F 25.0 °F 85% 30.13 in 5.0 mi South 6.9 mph - N/A   Overcast
6:53 PM 28.0 °F 20.0 °F 26.1 °F 92% 30.11 in 2.0 mi ESE 8.1 mph - N/A   Overcast
7:14 PM 28.0 °F 20.0 °F 26.1 °F 92% 30.07 in 2.0 mi SE 8.1 mph - N/A   Overcast
7:21 PM 28.0 °F 20.0 °F 27.0 °F 96% 30.07 in 1.8 mi SE 8.1 mph - N/A   Overcast
7:53 PM 28.9 °F 21.9 °F 27.0 °F 92% 30.11 in 2.0 mi SE 6.9 mph - N/A   Overcast
8:53 PM 28.9 °F 23.9 °F 28.0 °F 96% 30.10 in 2.0 mi ESE 4.6 mph - N/A   Overcast
9:03 PM 28.9 °F 23.9 °F 28.0 °F 96% 30.06 in 1.8 mi ESE 4.6 mph - N/A   Overcast
9:53 PM 30.0 °F 22.4 °F 28.0 °F 92% 30.09 in 1.0 mi SE 8.1 mph - N/A   Overcast
10:18 PM 30.0 °F 21.7 °F 28.9 °F 96% 30.05 in 0.8 mi SE 9.2 mph - N/A   Overcast
10:53 PM 30.0 °F 21.7 °F 28.9 °F 96% 30.08 in 0.5 mi SE 9.2 mph - N/A Fog Light Freezing Fog
11:29 PM 30.9 °F 23.5 °F 30.0 °F 96% 30.02 in 0.2 mi SE 8.1 mph - N/A Fog Light Freezing Fog
11:53 PM 30.9 °F 22.8 °F 30.0 °F 96% 30.04 in 0.2 mi SE 9.2 mph - N/A Fog Light Freezing Fog